Time,TemperatureF,DewpointF,PressureIn,WindDirection,WindDirectionDegrees,WindSpeedMPH,WindSpeedGustMPH,Humidity,HourlyPrecipIn,Conditions,Clouds,dailyrainin,SoftwareType,DateUTC
2013-01-20 00:00:00,40.3,30.2,30.14,SSW,195,0.0,2.0,67,0.00,,---,0.00,VWS V14.01,2013-01-20 05:00:00,
2013-01-20 00:01:00,40.3,30.6,30.15,SSW,195,0.0,2.0,68,0.00,,---,0.00,VWS V14.01,2013-01-20 05:01:00,
2013-01-20 00:04:00,40.0,29.9,30.14,South,171,0.0,2.0,67,0.00,,---,0.00,VWS V14.01,2013-01-20 05:04:00,
2013-01-20 00:09:00,39.8,29.8,30.14,WSW,254,0.0,3.0,67,0.00,,---,0.00,VWS V14.01,2013-01-20 05:09:00,
2013-01-20 00:14:00,39.7,30.4,30.14,South,180,0.0,3.0,69,0.00,,---,0.00,VWS V14.01,2013-01-20 05:14:00,
2013-01-20 00:19:00,39.3,30.0,30.14,South,189,0.0,3.0,69,0.00,,---,0.00,VWS V14.01,2013-01-20 05:19:00,
2013-01-20 00:24:00,38.8,29.5,30.14,South,189,0.0,3.0,69,0.00,,---,0.00,VWS V14.01,2013-01-20 05:24:00,
2013-01-20 00:29:00,38.4,29.5,30.13,South,189,0.0,2.0,70,0.00,,---,0.00,VWS V14.01,2013-01-20 05:29:00,
2013-01-20 00:30:00,38.5,29.6,30.14,South,189,0.0,3.0,70,0.00,,---,0.00,VWS V14.01,2013-01-20 05:30:00,
2013-01-20 00:34:00,38.5,29.9,30.13,SSW,209,0.0,3.0,71,0.00,,---,0.00,VWS V14.01,2013-01-20 05:34:00,
2013-01-20 00:39:00,38.7,30.1,30.13,South,186,0.0,3.0,71,0.00,,---,0.00,VWS V14.01,2013-01-20 05:39:00,
2013-01-20 00:44:00,38.8,29.9,30.12,SSE,155,0.0,4.0,70,0.00,,---,0.00,VWS V14.01,2013-01-20 05:44:00,
2013-01-20 00:49:00,39.0,30.1,30.12,SSW,196,0.0,4.0,70,0.00,,---,0.00,VWS V14.01,2013-01-20 05:49:00,
2013-01-20 00:54:00,39.0,30.1,30.11,South,175,0.0,4.0,70,0.00,,---,0.00,VWS V14.01,2013-01-20 05:54:00,
2013-01-20 00:59:00,39.3,30.0,30.11,SSW,204,1.0,5.0,69,0.00,,---,0.00,VWS V14.01,2013-01-20 05:59:00,
2013-01-20 01:00:00,39.2,30.2,30.11,SSE,148,4.0,5.0,70,0.00,,---,0.00,VWS V14.01,2013-01-20 06:00:00,
2013-01-20 01:04:00,39.5,30.2,30.11,WSW,246,3.0,6.0,69,0.00,,---,0.00,VWS V14.01,2013-01-20 06:04:00,
2013-01-20 01:09:00,39.5,30.2,30.11,SSW,210,0.0,6.0,69,0.00,,---,0.00,VWS V14.01,2013-01-20 06:09:00,
2013-01-20 01:14:00,39.5,30.5,30.11,West,277,0.0,6.0,70,0.00,,---,0.00,VWS V14.01,2013-01-20 06:14:00,
2013-01-20 01:19:00,39.5,30.5,30.11,WSW,240,1.0,6.0,70,0.00,,---,0.00,VWS V14.01,2013-01-20 06:19:00,
2013-01-20 01:24:00,39.6,30.3,30.10,SSW,200,0.0,6.0,69,0.00,,---,0.00,VWS V14.01,2013-01-20 06:24:00,
2013-01-20 01:29:00,39.8,30.5,30.10,SSE,151,4.0,4.0,69,0.00,,---,0.00,VWS V14.01,2013-01-20 06:29:00,
2013-01-20 01:30:00,39.7,30.4,30.10,SSE,166,0.0,6.0,69,0.00,,---,0.00,VWS V14.01,2013-01-20 06:30:00,
2013-01-20 01:34:00,39.9,30.6,30.10,SW,229,3.0,5.0,69,0.00,,---,0.00,VWS V14.01,2013-01-20 06:34:00,
2013-01-20 01:39:00,39.8,30.5,30.10,WSW,240,0.0,5.0,69,0.00,,---,0.00,VWS V14.01,2013-01-20 06:39:00,
2013-01-20 01:44:00,39.8,30.5,30.10,SSW,194,0.0,5.0,69,0.00,,---,0.00,VWS V14.01,2013-01-20 06:44:00,
2013-01-20 01:49:00,39.8,30.5,30.10,South,175,4.0,5.0,69,0.00,,---,0.00,VWS V14.01,2013-01-20 06:49:00,
2013-01-20 01:54:00,39.7,30.4,30.10,South,182,0.0,5.0,69,0.00,,---,0.00,VWS V14.01,2013-01-20 06:54:00,
2013-01-20 01:59:00,39.6,30.6,30.10,SW,215,3.0,3.0,70,0.00,,---,0.00,VWS V14.01,2013-01-20 06:59:00,
2013-01-20 02:00:00,39.7,30.7,30.10,South,182,0.0,5.0,70,0.00,,---,0.00,VWS V14.01,2013-01-20 07:00:00,
2013-01-20 02:04:00,39.6,30.6,30.10,SSE,158,0.0,4.0,70,0.00,,---,0.00,VWS V14.01,2013-01-20 07:04:00,
2013-01-20 02:09:00,39.7,30.7,30.10,SW,234,1.0,4.0,70,0.00,,---,0.00,VWS V14.01,2013-01-20 07:09:00,
2013-01-20 02:14:00,39.6,30.6,30.09,SSW,202,1.0,4.0,70,0.00,,---,0.00,VWS V14.01,2013-01-20 07:14:00,
2013-01-20 02:19:00,39.6,30.6,30.09,SW,234,0.0,9.0,70,0.00,,---,0.00,VWS V14.01,2013-01-20 07:19:00,
2013-01-20 02:24:00,39.6,31.0,30.09,SW,215,2.0,9.0,71,0.00,,---,0.00,VWS V14.01,2013-01-20 07:24:00,
2013-01-20 02:29:00,39.6,31.0,30.09,WSW,237,3.0,5.0,71,0.00,,---,0.00,VWS V14.01,2013-01-20 07:29:00,
2013-01-20 02:30:00,39.5,30.9,30.09,SW,218,0.0,9.0,71,0.00,,---,0.00,VWS V14.01,2013-01-20 07:30:00,
2013-01-20 02:34:00,39.6,31.0,30.09,SW,227,2.0,5.0,71,0.00,,---,0.00,VWS V14.01,2013-01-20 07:34:00,
2013-01-20 02:39:00,39.6,30.6,30.09,SSW,200,0.0,7.0,70,0.00,,---,0.00,VWS V14.01,2013-01-20 07:39:00,
2013-01-20 02:44:00,39.7,30.7,30.09,SW,217,0.0,7.0,70,0.00,,---,0.00,VWS V14.01,2013-01-20 07:44:00,
2013-01-20 02:49:00,39.6,30.6,30.09,SSE,157,0.0,7.0,70,0.00,,---,0.00,VWS V14.01,2013-01-20 07:49:00,
2013-01-20 02:54:00,39.8,31.2,30.08,SW,229,0.0,7.0,71,0.00,,---,0.00,VWS V14.01,2013-01-20 07:54:00,
2013-01-20 02:59:00,39.8,30.8,30.08,SW,219,2.0,4.0,70,0.00,,---,0.00,VWS V14.01,2013-01-20 07:59:00,
2013-01-20 03:00:00,39.8,30.8,30.08,WSW,257,0.0,7.0,70,0.00,,---,0.00,VWS V14.01,2013-01-20 08:00:00,
2013-01-20 03:04:00,40.0,31.0,30.08,SW,221,2.0,6.0,70,0.00,,---,0.00,VWS V14.01,2013-01-20 08:04:00,
2013-01-20 03:09:00,40.1,31.1,30.07,SSE,167,3.0,10.0,70,0.00,,---,0.00,VWS V14.01,2013-01-20 08:09:00,
2013-01-20 03:15:00,40.2,31.2,30.07,WNW,296,2.0,10.0,70,0.00,,---,0.00,VWS V14.01,2013-01-20 08:15:00,
2013-01-20 03:20:00,40.3,31.0,30.07,West,265,3.0,10.0,69,0.00,,---,0.00,VWS V14.01,2013-01-20 08:20:00,
2013-01-20 03:25:00,40.5,31.1,30.07,West,275,1.0,10.0,69,0.00,,---,0.00,VWS V14.01,2013-01-20 08:25:00,
2013-01-20 03:30:00,40.5,31.1,30.07,SW,225,2.0,9.0,69,0.00,,---,0.00,VWS V14.01,2013-01-20 08:30:00,
2013-01-20 03:35:00,40.5,30.8,30.06,SW,227,6.0,9.0,68,0.00,,---,0.00,VWS V14.01,2013-01-20 08:35:00,
2013-01-20 03:40:00,40.5,31.1,30.06,WSW,244,3.0,10.0,69,0.00,,---,0.00,VWS V14.01,2013-01-20 08:40:00,
2013-01-20 03:45:00,40.5,31.1,30.06,WNW,287,1.0,10.0,69,0.00,,---,0.00,VWS V14.01,2013-01-20 08:45:00,
2013-01-20 03:50:00,40.5,31.1,30.06,WNW,286,1.0,10.0,69,0.00,,---,0.00,VWS V14.01,2013-01-20 08:50:00,
2013-01-20 03:55:00,40.4,31.0,30.06,WSW,253,1.0,10.0,69,0.00,,---,0.00,VWS V14.01,2013-01-20 08:55:00,
2013-01-20 04:00:00,40.3,31.0,30.06,SW,219,0.0,5.0,69,0.00,,---,0.00,VWS V14.01,2013-01-20 09:00:00,
2013-01-20 04:05:00,40.2,30.9,30.06,WSW,244,2.0,6.0,69,0.00,,---,0.00,VWS V14.01,2013-01-20 09:05:00,
2013-01-20 04:10:00,40.1,31.1,30.06,SW,234,1.0,10.0,70,0.00,,---,0.00,VWS V14.01,2013-01-20 09:10:00,
2013-01-20 04:15:00,40.0,31.0,30.06,West,263,1.0,10.0,70,0.00,,---,0.00,VWS V14.01,2013-01-20 09:15:00,
2013-01-20 04:20:00,39.9,30.9,30.06,SW,236,0.0,10.0,70,0.00,,---,0.00,VWS V14.01,2013-01-20 09:20:00,
2013-01-20 04:25:00,39.9,30.9,30.06,WSW,254,2.0,10.0,70,0.00,,---,0.00,VWS V14.01,2013-01-20 09:25:00,
2013-01-20 04:30:00,39.9,30.9,30.05,WSW,246,2.0,5.0,70,0.00,,---,0.00,VWS V14.01,2013-01-20 09:30:00,
2013-01-20 04:35:00,39.8,30.8,30.05,WSW,248,0.0,10.0,70,0.00,,---,0.00,VWS V14.01,2013-01-20 09:35:00,
2013-01-20 04:40:00,39.8,30.8,30.06,South,178,0.0,11.0,70,0.00,,---,0.00,VWS V14.01,2013-01-20 09:40:00,
2013-01-20 04:45:00,39.7,30.7,30.05,SW,236,3.0,11.0,70,0.00,,---,0.00,VWS V14.01,2013-01-20 09:45:00,
2013-01-20 04:50:00,39.7,30.7,30.05,West,278,0.0,11.0,70,0.00,,---,0.00,VWS V14.01,2013-01-20 09:50:00,
2013-01-20 04:55:00,39.6,31.0,30.05,West,267,2.0,11.0,71,0.00,,---,0.00,VWS V14.01,2013-01-20 09:55:00,
2013-01-20 05:00:00,39.6,31.0,30.05,WSW,241,2.0,3.0,71,0.00,,---,0.00,VWS V14.01,2013-01-20 10:00:00,
2013-01-20 05:05:00,39.5,30.9,30.05,SSW,213,4.0,10.0,71,0.00,,---,0.00,VWS V14.01,2013-01-20 10:05:00,
2013-01-20 05:10:00,39.4,30.8,30.05,West,269,0.0,10.0,71,0.00,,---,0.00,VWS V14.01,2013-01-20 10:10:00,
2013-01-20 05:15:00,39.4,30.8,30.05,WSW,243,5.0,10.0,71,0.00,,---,0.00,VWS V14.01,2013-01-20 10:15:00,
2013-01-20 05:20:00,39.3,30.7,30.05,WSW,246,3.0,11.0,71,0.00,,---,0.00,VWS V14.01,2013-01-20 10:20:00,
2013-01-20 05:25:00,39.3,30.7,30.05,WSW,248,4.0,11.0,71,0.00,,---,0.00,VWS V14.01,2013-01-20 10:25:00,
2013-01-20 05:30:00,39.2,31.0,30.05,WSW,242,2.0,4.0,72,0.00,,---,0.00,VWS V14.01,2013-01-20 10:30:00,
2013-01-20 05:35:00,39.1,30.9,30.05,SW,226,0.0,5.0,72,0.00,,---,0.00,VWS V14.01,2013-01-20 10:35:00,
2013-01-20 05:40:00,38.9,30.7,30.05,SW,229,1.0,6.0,72,0.00,,---,0.00,VWS V14.01,2013-01-20 10:40:00,
2013-01-20 05:45:00,38.8,30.9,30.05,WSW,238,0.0,6.0,73,0.00,,---,0.00,VWS V14.01,2013-01-20 10:45:00,
2013-01-20 05:50:00,38.6,30.7,30.05,SSW,202,0.0,6.0,73,0.00,,---,0.00,VWS V14.01,2013-01-20 10:50:00,
2013-01-20 05:55:00,38.5,31.0,30.05,SW,221,0.0,6.0,74,0.00,,---,0.00,VWS V14.01,2013-01-20 10:55:00,
2013-01-20 06:00:00,38.3,30.8,30.04,SSE,158,2.0,4.0,74,0.00,,---,0.00,VWS V14.01,2013-01-20 11:00:00,
2013-01-20 06:05:00,38.2,30.7,30.04,SSW,202,0.0,5.0,74,0.00,,---,0.00,VWS V14.01,2013-01-20 11:05:00,
2013-01-20 06:11:00,38.2,30.7,30.04,West,263,1.0,7.0,74,0.00,,---,0.00,VWS V14.01,2013-01-20 11:11:00,
2013-01-20 06:16:00,38.3,30.8,30.04,SW,227,2.0,7.0,74,0.00,,---,0.00,VWS V14.01,2013-01-20 11:16:00,
2013-01-20 06:21:00,38.4,30.9,30.04,SW,227,0.0,7.0,74,0.00,,---,0.00,VWS V14.01,2013-01-20 11:21:00,
2013-01-20 06:26:00,38.5,31.0,30.04,WSW,241,0.0,9.0,74,0.00,,---,0.00,VWS V14.01,2013-01-20 11:26:00,
2013-01-20 06:30:00,38.5,31.0,30.04,SW,229,0.0,9.0,74,0.00,,---,0.00,VWS V14.01,2013-01-20 11:30:00,
2013-01-20 06:31:00,38.4,30.9,30.05,WSW,244,0.0,3.0,74,0.00,,---,0.00,VWS V14.01,2013-01-20 11:31:00,
2013-01-20 06:36:00,38.4,30.9,30.04,WSW,246,1.0,10.0,74,0.00,,---,0.00,VWS V14.01,2013-01-20 11:36:00,
2013-01-20 06:41:00,38.5,31.0,30.04,SSW,210,9.0,10.0,74,0.00,,---,0.00,VWS V14.01,2013-01-20 11:41:00,
2013-01-20 06:46:00,38.6,30.7,30.04,WSW,238,3.0,10.0,73,0.00,,---,0.00,VWS V14.01,2013-01-20 11:46:00,
2013-01-20 06:51:00,38.7,30.8,30.04,SW,215,0.0,10.0,73,0.00,,---,0.00,VWS V14.01,2013-01-20 11:51:00,
2013-01-20 06:56:00,38.6,30.7,30.04,SW,215,2.0,10.0,73,0.00,,---,0.00,VWS V14.01,2013-01-20 11:56:00,
2013-01-20 07:00:00,38.6,30.7,30.04,SSW,212,3.0,10.0,73,0.00,,---,0.00,VWS V14.01,2013-01-20 12:00:00,
2013-01-20 07:01:00,38.6,30.7,30.04,SW,220,0.0,6.0,73,0.00,,---,0.00,VWS V14.01,2013-01-20 12:01:00,
2013-01-20 07:06:00,38.6,30.7,30.04,SW,217,1.0,11.0,73,0.00,,---,0.00,VWS V14.01,2013-01-20 12:06:00,
2013-01-20 07:12:00,38.6,30.7,30.04,SSW,208,0.0,11.0,73,0.00,,---,0.00,VWS V14.01,2013-01-20 12:12:00,
2013-01-20 07:17:00,38.5,30.6,30.05,WNW,290,0.0,11.0,73,0.00,,---,0.00,VWS V14.01,2013-01-20 12:17:00,
2013-01-20 07:22:00,38.6,30.7,30.05,SW,234,2.0,11.0,73,0.00,,---,0.00,VWS V14.01,2013-01-20 12:22:00,
2013-01-20 07:27:00,38.6,30.7,30.05,West,273,3.0,11.0,73,0.00,,---,0.00,VWS V14.01,2013-01-20 12:27:00,
2013-01-20 07:30:00,38.6,30.7,30.05,SW,227,4.0,11.0,73,0.00,,---,0.00,VWS V14.01,2013-01-20 12:30:00,
2013-01-20 07:32:00,38.7,30.8,30.04,SW,227,0.0,7.0,73,0.00,,---,0.00,VWS V14.01,2013-01-20 12:32:00,
2013-01-20 07:37:00,38.7,30.8,30.04,WSW,250,0.0,9.0,73,0.00,,---,0.00,VWS V14.01,2013-01-20 12:37:00,
2013-01-20 07:42:00,38.7,30.8,30.04,South,175,5.0,9.0,73,0.00,,---,0.00,VWS V14.01,2013-01-20 12:42:00,
2013-01-20 07:47:00,38.8,30.6,30.04,SSW,207,3.0,9.0,72,0.00,,---,0.00,VWS V14.01,2013-01-20 12:47:00,
2013-01-20 07:52:00,38.9,30.7,30.04,SSW,212,5.0,10.0,72,0.00,,---,0.00,VWS V14.01,2013-01-20 12:52:00,
2013-01-20 07:57:00,39.0,30.8,30.04,WSW,250,1.0,10.0,72,0.00,,---,0.00,VWS V14.01,2013-01-20 12:57:00,
2013-01-20 08:00:00,39.1,30.9,30.04,WSW,244,1.0,10.0,72,0.00,,---,0.00,VWS V14.01,2013-01-20 13:00:00,
2013-01-20 08:02:00,39.1,30.9,30.04,SW,235,1.0,6.0,72,0.00,,---,0.00,VWS V14.01,2013-01-20 13:02:00,
2013-01-20 08:07:00,39.1,30.5,30.04,WSW,244,3.0,10.0,71,0.00,,---,0.00,VWS V14.01,2013-01-20 13:07:00,
2013-01-20 08:12:00,39.3,30.7,30.04,WSW,238,2.0,10.0,71,0.00,,---,0.00,VWS V14.01,2013-01-20 13:12:00,
2013-01-20 08:17:00,39.6,31.0,30.04,West,273,2.0,10.0,71,0.00,,---,0.00,VWS V14.01,2013-01-20 13:17:00,
2013-01-20 08:22:00,39.8,30.8,30.04,NW,305,0.0,10.0,70,0.00,,---,0.00,VWS V14.01,2013-01-20 13:22:00,
2013-01-20 08:27:00,40.0,31.0,30.04,SSW,202,0.0,10.0,70,0.00,,---,0.00,VWS V14.01,2013-01-20 13:27:00,
2013-01-20 08:30:00,40.1,31.1,30.04,West,264,0.0,10.0,70,0.00,,---,0.00,VWS V14.01,2013-01-20 13:30:00,
2013-01-20 08:32:00,40.2,31.2,30.05,West,275,0.0,6.0,70,0.00,,---,0.00,VWS V14.01,2013-01-20 13:32:00,
2013-01-20 08:37:00,40.5,31.1,30.05,SSW,192,2.0,9.0,69,0.00,,---,0.00,VWS V14.01,2013-01-20 13:37:00,
2013-01-20 08:42:00,40.9,31.5,30.05,WSW,240,0.0,9.0,69,0.00,,---,0.00,VWS V14.01,2013-01-20 13:42:00,
2013-01-20 08:47:00,41.3,31.5,30.05,SW,227,3.0,9.0,68,0.00,,---,0.00,VWS V14.01,2013-01-20 13:47:00,
2013-01-20 08:52:00,41.8,32.0,30.05,SW,224,0.0,9.0,68,0.00,,---,0.00,VWS V14.01,2013-01-20 13:52:00,
2013-01-20 08:57:00,42.2,32.0,30.05,WSW,256,3.0,11.0,67,0.00,,---,0.00,VWS V14.01,2013-01-20 13:57:00,
2013-01-20 09:00:00,42.3,32.1,30.05,West,259,3.0,11.0,67,0.00,,---,0.00,VWS V14.01,2013-01-20 14:00:00,
2013-01-20 09:02:00,42.8,32.2,30.05,SW,217,3.0,9.0,66,0.00,,---,0.00,VWS V14.01,2013-01-20 14:02:00,
2013-01-20 09:07:00,43.2,32.6,30.05,SSW,209,0.0,9.0,66,0.00,,---,0.00,VWS V14.01,2013-01-20 14:07:00,
2013-01-20 09:12:00,43.7,32.7,30.05,WSW,248,0.0,9.0,65,0.00,,---,0.00,VWS V14.01,2013-01-20 14:12:00,
2013-01-20 09:17:00,44.2,33.2,30.05,SSE,167,4.0,9.0,65,0.00,,---,0.00,VWS V14.01,2013-01-20 14:17:00,
2013-01-20 09:22:00,44.7,33.3,30.05,WSW,247,0.0,13.0,64,0.00,,---,0.00,VWS V14.01,2013-01-20 14:22:00,
2013-01-20 09:27:00,45.2,33.8,30.05,SW,229,1.0,13.0,64,0.00,,---,0.00,VWS V14.01,2013-01-20 14:27:00,
2013-01-20 09:30:00,45.2,33.8,30.05,SW,230,1.0,13.0,64,0.00,,---,0.00,VWS V14.01,2013-01-20 14:30:00,
2013-01-20 09:32:00,45.8,33.5,30.05,West,267,1.0,8.0,62,0.00,,---,0.00,VWS V14.01,2013-01-20 14:32:00,
2013-01-20 09:37:00,46.2,34.3,30.06,SW,216,0.0,8.0,63,0.00,,---,0.00,VWS V14.01,2013-01-20 14:37:00,
2013-01-20 09:42:00,46.8,34.5,30.06,WSW,248,3.0,8.0,62,0.00,,---,0.00,VWS V14.01,2013-01-20 14:42:00,
2013-01-20 09:47:00,47.3,35.0,30.05,SW,222,0.0,8.0,62,0.00,,---,0.00,VWS V14.01,2013-01-20 14:47:00,
2013-01-20 09:52:00,47.9,34.7,30.06,SW,225,4.0,9.0,60,0.00,,---,0.00,VWS V14.01,2013-01-20 14:52:00,
2013-01-20 09:58:00,48.5,34.8,30.06,West,261,3.0,13.0,59,0.00,,---,0.00,VWS V14.01,2013-01-20 14:58:00,
2013-01-20 10:00:00,48.5,34.8,30.06,SW,215,2.0,13.0,59,0.00,,---,0.00,VWS V14.01,2013-01-20 15:00:00,
2013-01-20 10:03:00,48.8,35.1,30.06,WSW,240,0.0,7.0,59,0.00,,---,0.00,VWS V14.01,2013-01-20 15:03:00,
2013-01-20 10:08:00,49.3,35.6,30.06,South,188,0.0,7.0,59,0.00,,---,0.00,VWS V14.01,2013-01-20 15:08:00,
2013-01-20 10:13:00,49.7,35.5,30.06,WSW,256,2.0,15.0,58,0.00,,---,0.00,VWS V14.01,2013-01-20 15:13:00,
2013-01-20 10:18:00,50.0,35.8,30.05,West,261,4.0,15.0,58,0.00,,---,0.00,VWS V14.01,2013-01-20 15:18:00,
2013-01-20 10:23:00,50.4,35.8,30.05,West,263,3.0,15.0,57,0.00,,---,0.00,VWS V14.01,2013-01-20 15:23:00,
2013-01-20 10:28:00,50.7,36.0,30.05,WSW,257,3.0,15.0,57,0.00,,---,0.00,VWS V14.01,2013-01-20 15:28:00,
2013-01-20 10:30:00,50.7,35.6,30.05,SW,227,3.0,15.0,56,0.00,,---,0.00,VWS V14.01,2013-01-20 15:30:00,
2013-01-20 10:33:00,51.0,35.9,30.05,WSW,244,2.0,11.0,56,0.00,,---,0.00,VWS V14.01,2013-01-20 15:33:00,
2013-01-20 10:38:00,51.4,36.7,30.05,WSW,238,3.0,12.0,57,0.00,,---,0.00,VWS V14.01,2013-01-20 15:38:00,
2013-01-20 10:43:00,51.7,36.1,30.05,WSW,242,4.0,12.0,55,0.00,,---,0.00,VWS V14.01,2013-01-20 15:43:00,
2013-01-20 10:48:00,51.9,35.8,30.05,West,271,6.0,12.0,54,0.00,,---,0.00,VWS V14.01,2013-01-20 15:48:00,
2013-01-20 10:53:00,52.3,36.6,30.05,West,261,1.0,12.0,55,0.00,,---,0.00,VWS V14.01,2013-01-20 15:53:00,
2013-01-20 10:58:00,52.5,36.3,30.04,SW,223,2.0,12.0,54,0.00,,---,0.00,VWS V14.01,2013-01-20 15:58:00,
2013-01-20 11:00:00,52.5,36.3,30.04,SW,223,2.0,12.0,54,0.00,,---,0.00,VWS V14.01,2013-01-20 16:00:00,
2013-01-20 11:03:00,52.8,36.6,30.04,South,190,0.0,5.0,54,0.00,,---,0.00,VWS V14.01,2013-01-20 16:03:00,
2013-01-20 11:08:00,53.0,37.7,30.04,WSW,249,5.0,11.0,56,0.00,,---,0.00,VWS V14.01,2013-01-20 16:08:00,
2013-01-20 11:13:00,53.3,36.6,30.03,NW,311,2.0,11.0,53,0.00,,---,0.00,VWS V14.01,2013-01-20 16:13:00,
2013-01-20 11:18:00,53.5,36.8,30.03,WSW,244,4.0,11.0,53,0.00,,---,0.00,VWS V14.01,2013-01-20 16:18:00,
2013-01-20 11:23:00,53.5,36.8,30.03,WSW,248,4.0,11.0,53,0.00,,---,0.00,VWS V14.01,2013-01-20 16:23:00,
2013-01-20 11:28:00,53.5,36.3,30.03,West,263,5.0,7.0,52,0.00,,---,0.00,VWS V14.01,2013-01-20 16:28:00,
2013-01-20 11:30:00,53.5,36.3,30.03,WSW,240,7.0,14.0,52,0.00,,---,0.00,VWS V14.01,2013-01-20 16:30:00,
2013-01-20 11:33:00,53.4,36.2,30.02,WSW,241,2.0,19.0,52,0.00,,---,0.00,VWS V14.01,2013-01-20 16:33:00,
2013-01-20 11:38:00,53.4,36.7,30.02,WSW,256,6.0,19.0,53,0.00,,---,0.00,VWS V14.01,2013-01-20 16:38:00,
2013-01-20 11:43:00,53.6,36.9,30.02,WSW,246,0.0,19.0,53,0.00,,---,0.00,VWS V14.01,2013-01-20 16:43:00,
2013-01-20 11:48:00,54.1,36.9,30.01,West,277,4.0,19.0,52,0.00,,---,0.00,VWS V14.01,2013-01-20 16:48:00,
2013-01-20 11:53:00,54.4,37.2,30.01,West,281,12.0,19.0,52,0.00,,---,0.00,VWS V14.01,2013-01-20 16:53:00,
2013-01-20 11:58:00,54.4,36.7,30.01,SW,231,5.0,11.0,51,0.00,,---,0.00,VWS V14.01,2013-01-20 16:58:00,
2013-01-20 12:00:00,54.4,37.2,30.01,West,273,6.0,19.0,52,0.00,,---,0.00,VWS V14.01,2013-01-20 17:00:00,
2013-01-20 12:03:00,54.4,37.2,30.01,South,180,6.0,11.0,52,0.00,,---,0.00,VWS V14.01,2013-01-20 17:03:00,
2013-01-20 12:08:00,54.6,37.3,30.01,WNW,286,6.0,12.0,52,0.00,,---,0.00,VWS V14.01,2013-01-20 17:08:00,
2013-01-20 12:13:00,54.5,37.2,30.00,West,272,6.0,12.0,52,0.00,,---,0.00,VWS V14.01,2013-01-20 17:13:00,
2013-01-20 12:19:00,54.7,37.9,30.00,WNW,298,3.0,13.0,53,0.00,,---,0.00,VWS V14.01,2013-01-20 17:19:00,
2013-01-20 12:23:00,55.0,37.7,30.00,West,265,4.0,13.0,52,0.00,,---,0.00,VWS V14.01,2013-01-20 17:23:00,
2013-01-20 12:29:00,55.2,37.4,30.00,WSW,250,3.0,5.0,51,0.00,,---,0.00,VWS V14.01,2013-01-20 17:29:00,
2013-01-20 12:30:00,55.2,37.4,30.00,West,265,3.0,13.0,51,0.00,,---,0.00,VWS V14.01,2013-01-20 17:30:00,
2013-01-20 12:34:00,55.4,37.1,30.00,WNW,294,0.0,16.0,50,0.00,,---,0.00,VWS V14.01,2013-01-20 17:34:00,
2013-01-20 12:39:00,55.5,37.2,29.99,WSW,254,6.0,16.0,50,0.00,,---,0.00,VWS V14.01,2013-01-20 17:39:00,
2013-01-20 12:44:00,55.8,36.9,29.99,WNW,291,5.0,16.0,49,0.00,,---,0.00,VWS V14.01,2013-01-20 17:44:00,
2013-01-20 12:49:00,56.0,37.6,29.99,West,260,2.0,16.0,50,0.00,,---,0.00,VWS V14.01,2013-01-20 17:49:00,
2013-01-20 12:54:00,56.2,37.3,29.99,SSW,195,4.0,16.0,49,0.00,,---,0.00,VWS V14.01,2013-01-20 17:54:00,
2013-01-20 12:59:00,56.6,38.7,29.99,West,279,3.0,5.0,51,0.00,,---,0.00,VWS V14.01,2013-01-20 17:59:00,
2013-01-20 13:00:00,56.5,37.6,29.99,SSW,208,0.0,16.0,49,0.00,,---,0.00,VWS V14.01,2013-01-20 18:00:00,
2013-01-20 13:04:00,56.8,37.3,29.99,SW,232,10.0,16.0,48,0.00,,---,0.00,VWS V14.01,2013-01-20 18:04:00,
2013-01-20 13:09:00,56.9,37.4,29.98,West,263,4.0,16.0,48,0.00,,---,0.00,VWS V14.01,2013-01-20 18:09:00,
2013-01-20 13:14:00,57.1,38.1,29.98,SW,232,2.0,16.0,49,0.00,,---,0.00,VWS V14.01,2013-01-20 18:14:00,
2013-01-20 13:19:00,57.2,37.2,29.98,West,259,0.0,16.0,47,0.00,,---,0.00,VWS V14.01,2013-01-20 18:19:00,
2013-01-20 13:24:00,57.5,37.5,29.98,West,269,4.0,16.0,47,0.00,,---,0.00,VWS V14.01,2013-01-20 18:24:00,
2013-01-20 13:29:00,57.5,36.3,29.98,West,271,2.0,5.0,45,0.00,,---,0.00,VWS V14.01,2013-01-20 18:29:00,
2013-01-20 13:30:00,57.5,35.8,29.98,WNW,297,4.0,16.0,44,0.00,,---,0.00,VWS V14.01,2013-01-20 18:30:00,
2013-01-20 13:34:00,57.5,36.9,29.98,WNW,300,2.0,7.0,46,0.00,,---,0.00,VWS V14.01,2013-01-20 18:34:00,
2013-01-20 13:39:00,57.6,35.9,29.97,WNW,283,3.0,12.0,44,0.00,,---,0.00,VWS V14.01,2013-01-20 18:39:00,
2013-01-20 13:44:00,57.6,36.4,29.97,West,264,1.0,12.0,45,0.00,,---,0.00,VWS V14.01,2013-01-20 18:44:00,
2013-01-20 13:49:00,57.7,35.4,29.97,WNW,286,1.0,12.0,43,0.00,,---,0.00,VWS V14.01,2013-01-20 18:49:00,
2013-01-20 13:54:00,57.8,36.0,29.97,West,279,5.0,12.0,44,0.00,,---,0.00,VWS V14.01,2013-01-20 18:54:00,
2013-01-20 13:59:00,57.9,36.1,29.97,West,278,6.0,6.0,44,0.00,,---,0.00,VWS V14.01,2013-01-20 18:59:00,
2013-01-20 14:00:00,57.9,35.6,29.97,WSW,252,0.0,12.0,43,0.00,,---,0.00,VWS V14.01,2013-01-20 19:00:00,
2013-01-20 14:04:00,57.9,35.6,29.97,WSW,257,3.0,10.0,43,0.00,,---,0.00,VWS V14.01,2013-01-20 19:04:00,
2013-01-20 14:09:00,57.9,35.0,29.98,WSW,242,6.0,13.0,42,0.00,,---,0.00,VWS V14.01,2013-01-20 19:09:00,
2013-01-20 14:14:00,57.9,35.6,29.97,WSW,255,0.0,13.0,43,0.00,,---,0.00,VWS V14.01,2013-01-20 19:14:00,
2013-01-20 14:19:00,58.1,35.7,29.97,West,269,7.0,13.0,43,0.00,,---,0.00,VWS V14.01,2013-01-20 19:19:00,
2013-01-20 14:24:00,58.2,36.4,29.97,NNW,333,0.0,13.0,44,0.00,,---,0.00,VWS V14.01,2013-01-20 19:24:00,
2013-01-20 14:29:00,58.1,35.7,29.98,South,183,7.0,9.0,43,0.00,,---,0.00,VWS V14.01,2013-01-20 19:29:00,
2013-01-20 14:30:00,58.1,35.7,29.97,WNW,285,1.0,13.0,43,0.00,,---,0.00,VWS V14.01,2013-01-20 19:30:00,
2013-01-20 14:34:00,58.0,35.7,29.98,WSW,244,4.0,14.0,43,0.00,,---,0.00,VWS V14.01,2013-01-20 19:34:00,
2013-01-20 14:39:00,58.0,35.7,29.98,WSW,254,3.0,14.0,43,0.00,,---,0.00,VWS V14.01,2013-01-20 19:39:00,
2013-01-20 14:44:00,57.9,35.0,29.98,WNW,295,5.0,14.0,42,0.00,,---,0.00,VWS V14.01,2013-01-20 19:44:00,
2013-01-20 14:49:00,57.9,35.6,29.98,WSW,252,7.0,14.0,43,0.00,,---,0.00,VWS V14.01,2013-01-20 19:49:00,
2013-01-20 14:55:00,57.8,36.0,29.98,West,264,3.0,14.0,44,0.00,,---,0.00,VWS V14.01,2013-01-20 19:55:00,
2013-01-20 15:00:00,57.9,35.6,29.98,WSW,249,5.0,7.0,43,0.00,,---,0.00,VWS V14.01,2013-01-20 20:00:00,
2013-01-20 15:05:00,58.0,35.7,29.98,West,269,2.0,7.0,43,0.00,,---,0.00,VWS V14.01,2013-01-20 20:05:00,
2013-01-20 15:10:00,58.0,36.2,29.98,WSW,247,2.0,11.0,44,0.00,,---,0.00,VWS V14.01,2013-01-20 20:10:00,
2013-01-20 15:15:00,58.1,35.7,29.98,WNW,298,1.0,12.0,43,0.00,,---,0.00,VWS V14.01,2013-01-20 20:15:00,
2013-01-20 15:20:00,58.1,35.2,29.98,WNW,294,3.0,12.0,42,0.00,,---,0.00,VWS V14.01,2013-01-20 20:20:00,
2013-01-20 15:25:00,58.0,35.1,29.98,SW,232,6.0,15.0,42,0.00,,---,0.00,VWS V14.01,2013-01-20 20:25:00,
2013-01-20 15:30:00,58.0,35.1,29.98,SW,222,6.0,6.0,42,0.00,,---,0.00,VWS V14.01,2013-01-20 20:30:00,
2013-01-20 15:35:00,58.0,35.1,29.98,West,275,7.0,12.0,42,0.00,,---,0.00,VWS V14.01,2013-01-20 20:35:00,
2013-01-20 15:40:00,58.0,35.7,29.98,SW,221,2.0,16.0,43,0.00,,---,0.00,VWS V14.01,2013-01-20 20:40:00,
2013-01-20 15:45:00,58.1,35.2,29.98,West,281,5.0,16.0,42,0.00,,---,0.00,VWS V14.01,2013-01-20 20:45:00,
2013-01-20 15:50:00,58.1,35.7,29.98,West,269,4.0,16.0,43,0.00,,---,0.00,VWS V14.01,2013-01-20 20:50:00,
2013-01-20 15:55:00,58.1,34.5,29.99,SW,221,5.0,16.0,41,0.00,,---,0.00,VWS V14.01,2013-01-20 20:55:00,
2013-01-20 16:00:00,58.0,34.5,29.99,West,280,3.0,5.0,41,0.00,,---,0.00,VWS V14.01,2013-01-20 21:00:00,
2013-01-20 16:05:00,58.0,35.7,29.99,SSW,209,0.0,7.0,43,0.00,,---,0.00,VWS V14.01,2013-01-20 21:05:00,
2013-01-20 16:10:00,58.0,35.7,29.99,WNW,288,2.0,7.0,43,0.00,,---,0.00,VWS V14.01,2013-01-20 21:10:00,
2013-01-20 16:15:00,57.9,35.6,29.99,West,280,1.0,11.0,43,0.00,,---,0.00,VWS V14.01,2013-01-20 21:15:00,
2013-01-20 16:20:00,57.6,34.7,30.00,WNW,299,1.0,11.0,42,0.00,,---,0.00,VWS V14.01,2013-01-20 21:20:00,
2013-01-20 16:25:00,57.3,33.8,29.99,WNW,285,4.0,11.0,41,0.00,,---,0.00,VWS V14.01,2013-01-20 21:25:00,
2013-01-20 16:30:00,57.0,34.2,30.00,West,270,3.0,4.0,42,0.00,,---,0.00,VWS V14.01,2013-01-20 21:30:00,
2013-01-20 16:35:00,56.8,34.0,30.00,WSW,258,2.0,6.0,42,0.00,,---,0.00,VWS V14.01,2013-01-20 21:35:00,
2013-01-20 16:40:00,56.6,34.4,30.00,SW,215,0.0,6.0,43,0.00,,---,0.00,VWS V14.01,2013-01-20 21:40:00,
2013-01-20 16:45:00,56.3,34.7,30.00,WSW,258,6.0,6.0,44,0.00,,---,0.00,VWS V14.01,2013-01-20 21:45:00,
2013-01-20 16:50:00,56.0,34.4,30.00,West,279,0.0,13.0,44,0.00,,---,0.00,VWS V14.01,2013-01-20 21:50:00,
2013-01-20 16:55:00,55.7,34.1,30.00,West,279,2.0,13.0,44,0.00,,---,0.00,VWS V14.01,2013-01-20 21:55:00,
2013-01-20 17:00:00,55.6,34.0,30.00,West,279,3.0,4.0,44,0.00,,---,0.00,VWS V14.01,2013-01-20 22:00:00,
2013-01-20 17:05:00,55.4,33.9,30.00,West,275,1.0,5.0,44,0.00,,---,0.00,VWS V14.01,2013-01-20 22:05:00,
2013-01-20 17:10:00,55.2,33.1,30.01,WSW,248,0.0,5.0,43,0.00,,---,0.00,VWS V14.01,2013-01-20 22:10:00,
2013-01-20 17:15:00,55.0,32.9,30.01,WNW,284,2.0,5.0,43,0.00,,---,0.00,VWS V14.01,2013-01-20 22:15:00,
2013-01-20 17:20:00,54.8,32.8,30.02,WNW,282,0.0,5.0,43,0.00,,---,0.00,VWS V14.01,2013-01-20 22:20:00,
2013-01-20 17:25:00,54.5,32.5,30.02,West,273,1.0,5.0,43,0.00,,---,0.00,VWS V14.01,2013-01-20 22:25:00,
2013-01-20 17:30:00,54.2,32.2,30.02,WNW,290,0.0,1.0,43,0.00,,---,0.00,VWS V14.01,2013-01-20 22:30:00,
2013-01-20 17:35:00,53.9,31.9,30.02,WNW,289,0.0,3.0,43,0.00,,---,0.00,VWS V14.01,2013-01-20 22:35:00,
2013-01-20 17:40:00,53.5,32.1,30.02,West,264,0.0,3.0,44,0.00,,---,0.00,VWS V14.01,2013-01-20 22:40:00,
2013-01-20 17:46:00,53.2,31.9,30.02,West,279,0.0,4.0,44,0.00,,---,0.00,VWS V14.01,2013-01-20 22:46:00,
2013-01-20 17:51:00,52.9,32.2,30.03,West,275,0.0,4.0,45,0.00,,---,0.00,VWS V14.01,2013-01-20 22:51:00,
2013-01-20 17:56:00,52.6,31.9,30.03,West,275,0.0,4.0,45,0.00,,---,0.00,VWS V14.01,2013-01-20 22:56:00,
2013-01-20 18:00:00,52.4,31.7,30.03,West,275,0.0,4.0,45,0.00,,---,0.00,VWS V14.01,2013-01-20 23:00:00,
2013-01-20 18:01:00,52.3,32.2,30.03,West,275,0.0,1.0,46,0.00,,---,0.00,VWS V14.01,2013-01-20 23:01:00,
2013-01-20 18:06:00,52.0,31.9,30.03,West,275,0.0,1.0,46,0.00,,---,0.00,VWS V14.01,2013-01-20 23:06:00,
2013-01-20 18:11:00,51.7,31.6,30.04,West,275,0.0,1.0,46,0.00,,---,0.00,VWS V14.01,2013-01-20 23:11:00,
2013-01-20 18:16:00,51.3,31.8,30.04,West,275,0.0,1.0,47,0.00,,---,0.00,VWS V14.01,2013-01-20 23:16:00,
2013-01-20 18:21:00,51.0,32.0,30.04,West,275,0.0,1.0,48,0.00,,---,0.00,VWS V14.01,2013-01-20 23:21:00,
2013-01-20 18:26:00,50.7,32.2,30.05,West,275,0.0,1.0,49,0.00,,---,0.00,VWS V14.01,2013-01-20 23:26:00,
2013-01-20 18:30:00,50.6,32.7,30.05,West,275,0.0,1.0,50,0.00,,---,0.00,VWS V14.01,2013-01-20 23:30:00,
2013-01-20 18:31:00,50.4,33.0,30.05,West,275,1.0,1.0,51,0.00,,---,0.00,VWS V14.01,2013-01-20 23:31:00,
2013-01-20 18:36:00,50.1,33.2,30.05,West,275,0.0,2.0,52,0.00,,---,0.00,VWS V14.01,2013-01-20 23:36:00,
2013-01-20 18:41:00,49.9,33.0,30.05,West,275,0.0,2.0,52,0.00,,---,0.00,VWS V14.01,2013-01-20 23:41:00,
2013-01-20 18:46:00,49.8,32.9,30.06,West,274,0.0,2.0,52,0.00,,---,0.00,VWS V14.01,2013-01-20 23:46:00,
2013-01-20 18:51:00,49.7,32.8,30.06,West,274,0.0,2.0,52,0.00,,---,0.00,VWS V14.01,2013-01-20 23:51:00,
2013-01-20 18:56:00,49.5,33.1,30.06,West,274,0.0,2.0,53,0.00,,---,0.00,VWS V14.01,2013-01-20 23:56:00,
2013-01-20 19:00:00,49.5,33.1,30.06,West,274,0.0,2.0,53,0.00,,---,0.00,VWS V14.01,2013-01-21 00:00:00,
2013-01-20 19:01:00,49.3,32.9,30.06,West,274,0.0,1.0,53,0.00,,---,0.00,VWS V14.01,2013-01-21 00:01:00,
2013-01-20 19:06:00,49.2,32.8,30.06,West,266,0.0,2.0,53,0.00,,---,0.00,VWS V14.01,2013-01-21 00:06:00,
2013-01-20 19:11:00,49.1,32.7,30.06,West,266,0.0,2.0,53,0.00,,---,0.00,VWS V14.01,2013-01-21 00:11:00,
2013-01-20 19:16:00,48.9,33.0,30.06,West,265,0.0,2.0,54,0.00,,---,0.00,VWS V14.01,2013-01-21 00:16:00,
2013-01-20 19:22:00,48.6,32.7,30.07,West,265,0.0,2.0,54,0.00,,---,0.00,VWS V14.01,2013-01-21 00:22:00,
2013-01-20 19:27:00,48.3,32.9,30.07,West,265,0.0,2.0,55,0.00,,---,0.00,VWS V14.01,2013-01-21 00:27:00,
2013-01-20 19:30:00,48.3,33.3,30.07,West,265,0.0,2.0,56,0.00,,---,0.00,VWS V14.01,2013-01-21 00:30:00,
2013-01-20 19:32:00,48.1,33.2,30.07,West,263,0.0,1.0,56,0.00,,---,0.00,VWS V14.01,2013-01-21 00:32:00,
2013-01-20 19:37:00,47.8,32.9,30.07,West,264,0.0,1.0,56,0.00,,---,0.00,VWS V14.01,2013-01-21 00:37:00,
2013-01-20 19:42:00,47.7,32.8,30.07,West,263,0.0,1.0,56,0.00,,---,0.00,VWS V14.01,2013-01-21 00:42:00,
2013-01-20 19:47:00,47.6,33.1,30.08,West,263,0.0,1.0,57,0.00,,---,0.00,VWS V14.01,2013-01-21 00:47:00,
2013-01-20 19:52:00,47.3,32.8,30.07,West,263,0.0,1.0,57,0.00,,---,0.00,VWS V14.01,2013-01-21 00:52:00,
2013-01-20 19:57:00,47.0,33.0,30.07,West,263,0.0,1.0,58,0.00,,---,0.00,VWS V14.01,2013-01-21 00:57:00,
2013-01-20 20:00:00,47.0,33.0,30.07,West,263,0.0,1.0,58,0.00,,---,0.00,VWS V14.01,2013-01-21 01:00:00,
2013-01-20 20:02:00,46.7,32.7,30.07,West,263,0.0,0.0,58,0.00,,---,0.00,VWS V14.01,2013-01-21 01:02:00,
2013-01-20 20:07:00,46.4,32.9,30.08,West,263,0.0,0.0,59,0.00,,---,0.00,VWS V14.01,2013-01-21 01:07:00,
2013-01-20 20:12:00,46.0,32.5,30.08,West,263,0.0,0.0,59,0.00,,---,0.00,VWS V14.01,2013-01-21 01:12:00,
2013-01-20 20:17:00,45.7,32.6,30.08,West,263,0.0,0.0,60,0.00,,---,0.00,VWS V14.01,2013-01-21 01:17:00,
2013-01-20 20:22:00,45.4,32.3,30.09,West,263,0.0,0.0,60,0.00,,---,0.00,VWS V14.01,2013-01-21 01:22:00,
2013-01-20 20:28:00,44.9,32.3,30.08,West,263,0.0,0.0,61,0.00,,---,0.00,VWS V14.01,2013-01-21 01:28:00,
2013-01-20 20:30:00,44.9,32.3,30.08,West,263,0.0,0.0,61,0.00,,---,0.00,VWS V14.01,2013-01-21 01:30:00,
2013-01-20 20:33:00,44.3,32.1,30.08,West,263,0.0,0.0,62,0.00,,---,0.00,VWS V14.01,2013-01-21 01:33:00,
2013-01-20 20:38:00,43.7,32.3,30.08,West,263,0.0,0.0,64,0.00,,---,0.00,VWS V14.01,2013-01-21 01:38:00,
2013-01-20 20:43:00,43.1,32.2,30.08,West,263,0.0,0.0,65,0.00,,---,0.00,VWS V14.01,2013-01-21 01:43:00,
2013-01-20 20:48:00,42.6,32.4,30.08,West,263,0.0,0.0,67,0.00,,---,0.00,VWS V14.01,2013-01-21 01:48:00,
2013-01-20 20:53:00,42.0,32.6,30.09,West,263,0.0,1.0,69,0.00,,---,0.00,VWS V14.01,2013-01-21 01:53:00,
2013-01-20 20:58:00,41.5,32.1,30.09,West,263,0.0,1.0,69,0.00,,---,0.00,VWS V14.01,2013-01-21 01:58:00,
2013-01-20 21:00:00,41.5,32.1,30.09,West,263,0.0,1.0,69,0.00,,---,0.00,VWS V14.01,2013-01-21 02:00:00,
2013-01-20 21:03:00,41.3,32.3,30.09,West,263,0.0,0.0,70,0.00,,---,0.00,VWS V14.01,2013-01-21 02:03:00,
2013-01-20 21:08:00,40.8,32.1,30.09,West,263,0.0,1.0,71,0.00,,---,0.00,VWS V14.01,2013-01-21 02:08:00,
2013-01-20 21:13:00,40.4,31.8,30.09,West,263,0.0,1.0,71,0.00,,---,0.00,VWS V14.01,2013-01-21 02:13:00,
2013-01-20 21:18:00,40.2,31.9,30.09,West,263,0.0,1.0,72,0.00,,---,0.00,VWS V14.01,2013-01-21 02:18:00,
2013-01-20 21:23:00,40.2,31.9,30.09,West,263,0.0,1.0,72,0.00,,---,0.00,VWS V14.01,2013-01-21 02:23:00,
2013-01-20 21:28:00,40.1,31.8,30.09,West,263,0.0,0.0,72,0.00,,---,0.00,VWS V14.01,2013-01-21 02:28:00,
2013-01-20 21:30:00,40.1,31.8,30.09,West,263,0.0,1.0,72,0.00,,---,0.00,VWS V14.01,2013-01-21 02:30:00,
2013-01-20 21:33:00,40.2,31.9,30.10,West,263,0.0,0.0,72,0.00,,---,0.00,VWS V14.01,2013-01-21 02:33:00,
2013-01-20 21:38:00,40.5,31.9,30.09,West,263,0.0,1.0,71,0.00,,---,0.00,VWS V14.01,2013-01-21 02:38:00,
2013-01-20 21:43:00,40.6,32.0,30.10,West,263,0.0,1.0,71,0.00,,---,0.00,VWS V14.01,2013-01-21 02:43:00,
2013-01-20 21:48:00,40.5,31.9,30.10,West,263,0.0,1.0,71,0.00,,---,0.00,VWS V14.01,2013-01-21 02:48:00,
2013-01-20 21:53:00,40.3,32.0,30.10,West,263,0.0,1.0,72,0.00,,---,0.00,VWS V14.01,2013-01-21 02:53:00,
2013-01-20 21:58:00,40.0,31.7,30.10,West,263,0.0,0.0,72,0.00,,---,0.00,VWS V14.01,2013-01-21 02:58:00,
2013-01-20 22:00:00,40.0,33.4,30.10,West,263,0.0,1.0,77,0.00,,---,0.00,VWS V14.01,2013-01-21 03:00:00,
2013-01-20 22:03:00,39.6,31.7,30.10,West,263,0.0,0.0,73,0.00,,---,0.00,VWS V14.01,2013-01-21 03:03:00,
2013-01-20 22:08:00,39.2,32.0,30.09,West,263,0.0,0.0,75,0.00,,---,0.00,VWS V14.01,2013-01-21 03:08:00,
2013-01-20 22:13:00,38.5,31.6,30.09,West,263,0.0,0.0,76,0.00,,---,0.00,VWS V14.01,2013-01-21 03:13:00,
2013-01-20 22:18:00,37.7,31.1,30.09,West,263,0.0,0.0,77,0.00,,---,0.00,VWS V14.01,2013-01-21 03:18:00,
2013-01-20 22:23:00,37.5,31.3,30.09,West,263,0.0,0.0,78,0.00,,---,0.00,VWS V14.01,2013-01-21 03:23:00,
2013-01-20 22:28:00,37.7,31.5,30.09,West,263,0.0,0.0,78,0.00,,---,0.00,VWS V14.01,2013-01-21 03:28:00,
2013-01-20 22:30:00,37.7,31.5,30.09,West,263,0.0,0.0,78,0.00,,---,0.00,VWS V14.01,2013-01-21 03:30:00,
2013-01-20 22:33:00,37.6,31.4,30.10,West,263,0.0,0.0,78,0.00,,---,0.00,VWS V14.01,2013-01-21 03:33:00,
2013-01-20 22:38:00,37.2,31.3,30.10,West,263,0.0,0.0,79,0.00,,---,0.00,VWS V14.01,2013-01-21 03:38:00,
2013-01-20 22:43:00,36.4,30.8,30.10,West,263,0.0,0.0,80,0.00,,---,0.00,VWS V14.01,2013-01-21 03:43:00,
2013-01-20 22:48:00,35.7,30.5,30.10,West,263,0.0,0.0,81,0.00,,---,0.00,VWS V14.01,2013-01-21 03:48:00,
2013-01-20 22:54:00,35.0,30.1,30.10,West,263,0.0,0.0,82,0.00,,---,0.00,VWS V14.01,2013-01-21 03:54:00,
2013-01-20 22:59:00,34.4,30.1,30.11,West,263,0.0,0.0,84,0.00,,---,0.00,VWS V14.01,2013-01-21 03:59:00,
2013-01-20 23:00:00,34.5,30.2,30.11,West,263,0.0,0.0,84,0.00,,---,0.00,VWS V14.01,2013-01-21 04:00:00,
2013-01-20 23:04:00,33.8,29.8,30.10,West,263,0.0,0.0,85,0.00,,---,0.00,VWS V14.01,2013-01-21 04:04:00,
2013-01-20 23:09:00,33.6,30.1,30.10,West,263,0.0,0.0,87,0.00,,---,0.00,VWS V14.01,2013-01-21 04:09:00,
2013-01-20 23:14:00,33.7,30.2,30.10,West,263,0.0,0.0,87,0.00,,---,0.00,VWS V14.01,2013-01-21 04:14:00,
2013-01-20 23:19:00,33.8,30.1,30.10,West,263,0.0,0.0,86,0.00,,---,0.00,VWS V14.01,2013-01-21 04:19:00,
2013-01-20 23:24:00,34.2,30.5,30.10,West,263,0.0,0.0,86,0.00,,---,0.00,VWS V14.01,2013-01-21 04:24:00,
2013-01-20 23:29:00,34.5,30.5,30.10,West,259,0.0,0.0,85,0.00,,---,0.00,VWS V14.01,2013-01-21 04:29:00,
2013-01-20 23:30:00,34.4,30.4,30.10,West,259,0.0,0.0,85,0.00,,---,0.00,VWS V14.01,2013-01-21 04:30:00,
2013-01-20 23:34:00,34.7,30.4,30.10,West,259,0.0,0.0,84,0.00,,---,0.00,VWS V14.01,2013-01-21 04:34:00,
2013-01-20 23:39:00,34.7,30.4,30.10,West,259,0.0,0.0,84,0.00,,---,0.00,VWS V14.01,2013-01-21 04:39:00,
2013-01-20 23:44:00,34.4,30.1,30.10,West,259,0.0,0.0,84,0.00,,---,0.00,VWS V14.01,2013-01-21 04:44:00,
2013-01-20 23:49:00,33.7,29.4,30.10,West,259,0.0,1.0,84,0.00,,---,0.00,VWS V14.01,2013-01-21 04:49:00,
2013-01-20 23:54:00,33.2,29.5,30.10,West,259,0.0,1.0,86,0.00,,---,0.00,VWS V14.01,2013-01-21 04:54:00,
2013-01-20 23:59:00,32.8,29.4,30.10,West,259,0.0,0.0,87,0.00,,---,0.00,VWS V14.01,2013-01-21 04:59:00,